Location: Melizzano
(41.1500°N, 14.5000°E)
Time: 20:34:56
(UTC+00:00)

Cosmos 1633 Rocket - Pass Details

Date: 11 May 2021
Orbit: 608 x 622 km, 82.5° (Epoch: 21 June)

Event Time Altitude Azimuth Distance (km) Brightness Sun altitude
Rises 18:57:25 0° 4° (N) 2,899 6.9 -8.7°
Reaches altitude 10° 18:59:59 10° 18° (NNE) 1,991 5.9 -9.1°
Maximum altitude 19:03:39 25° 74° (ENE) 1,248 4.3 -9.7°
Enters shadow 19:06:34 14° 124° (SE) 1,751 4.7 -10.1°
